[[{"header":{"parameterUnit":"m.s-1","parameterCategory":1,"la1":30.2991,"la2":30.254,"lo1":-89.0895,"lo2":-89.0444,"dy":0.0017,"dx":0.0017,"nx":28,"ny":28,"refTime":"2024-05-16T21:00:00:Z","depth":0,"parameterNumber":2,"parameterNumberName":"U-component_of_WINDS"},"data":[0,0,0,0,0,0,0,0,0,0,0,0,0,0,0,0,0,0,0,0,0,0,0,0,0,0,0,0,0,0,0,0,0,0,0,0,0,0,0,0,0,0,0,0,0,0,0,0,0,0,0,0,0,0,0,0,0,0,1.748,1.748,0,1.7458,1.7457,1.7457,1.7402,1.7401,1.74,1.7399,1.7377,1.7378,1.7378,0,0,0,0,0,0,0,0,0,0,0,0,0,1.7478,1.7478,1.748,1.748,1.748,1.7458,1.7457,1.7457,1.7402,1.7401,1.7399,1.7398,1.7377,1.7378,1.7379,0,0,0,0,0,0,0,0,0,0,0,0,0,1.747,1.7478,1.748,1.745,1.7447,1.7458,1.7457,1.7457,1.7402,1.7401,1.7399,1.7397,1.7377,1.7378,1.7379,1.7418,0,0,1.7381,1.7381,0,0,0,0,0,0,0,0,1.747,1.747,1.7454,1.7452,1.7448,1.7431,1.7449,1.7444,1.7403,1.7419,1.7399,1.7397,1.7397,1.7396,1.7395,1.7417,1.7416,1.7381,1.7382,1.7382,1.7382,0,0,0,0,0,0,0,1.7471,1.747,1.7471,1.7454,1.7451,1.7438,1.7434,1.7448,1.7418,1.7418,1.7414,1.7412,1.7395,1.7395,1.7395,1.7416,1.7381,1.7382,1.7382,1.7383,1.747,1.7472,0,0,0,0,0,0,1.7475,1.7471,1.7472,1.7471,1.7455,1.7439,1.7436,1.7438,1.7418,1.7413,1.7413,1.7409,1.7394,1.7394,1.7394,1.7439,1.7382,1.7383,1.7383,1.7468,1.7471,1.7473,0,0,0,0,0,0,1.7476,1.7476,1.7473,1.747,1.7468,1.7441,1.7444,1.7439,1.7439,1.7414,1.7409,1.7418,1.7393,1.7393,1.7413,1.7438,1.7383,1.7384,1.7466,1.7469,1.7472,1.7531,0,0,0,0,0,0,1.7476,1.7476,1.7491,1.747,1.7469,1.7492,1.7446,1.7439,1.744,1.7434,1.7418,1.7414,1.7392,1.7412,1.7413,1.7438,1.7384,1.7464,1.7467,1.7471,1.7526,1.7535,1.7543,0,0,0,0,0,1.7476,1.7509,1.7492,1.7492,1.7486,1.7493,1.7492,1.7466,1.7442,1.7457,1.7441,1.7414,1.7435,1.7414,1.7416,1.7441,1.7462,1.7466,1.747,1.7523,1.7533,1.7542,0,0,0,0,0,0,1.7533,1.7505,1.7486,1.7513,1.7506,1.7484,1.7501,1.7478,1.7478,1.7473,1.744,1.7437,1.7462,1.7453,1.7431,1.7478,1.7444,1.7449,1.7483,1.7493,1.7501,1.7503,1.7385,0,0,0,0,0,1.7549,1.7556,1.7532,1.7558,1.7555,1.7529,1.7531,1.7512,1.7503,1.75,1.7486,1.7479,1.7484,1.7488,1.7491,1.7525,1.7521,1.7543,1.7551,1.7558,1.7562,1.758,1.759,1.7486,1.7486,1.7486,0,0,1.7581,1.7567,1.7574,1.7569,1.7561,1.7571,1.7527,1.7539,1.7546,1.7502,1.752,1.751,1.75,1.7527,1.7538,1.7521,1.759,1.7563,1.7568,1.7569,1.7585,1.7595,1.7604,1.7489,1.7489,1.7488,0,0,1.7646,1.7635,1.7656,1.7649,1.7637,1.762,1.7625,1.7607,1.7598,1.7615,1.7583,1.7591,1.76,1.7594,1.7593,1.7656,1.7631,1.7658,1.7701,1.7718,1.7726,1.7733,1.7756,1.7765,1.7662,1.7662,1.7663,0,1.7688,1.77,1.767,1.7684,1.7683,1.7643,1.7665,1.766,1.765,1.7651,1.7631,1.7641,1.7632,1.7658,1.7673,1.7673,1.7679,1.766,1.7727,1.7734,1.774,1.7762,1.7771,1.7666,1.7665,1.7665,1.7665,0,1.7753,1.7762,1.7781,1.7772,1.7773,1.7791,1.7764,1.7769,1.7749,1.7734,1.7753,1.774,1.7741,1.7745,1.7726,1.7768,1.7758,1.7733,1.7698,1.7754,1.7774,1.7782,1.7671,1.7669,1.7668,1.7668,0,0,1.7854,1.7828,1.7835,1.7831,1.7815,1.7822,1.7838,1.7837,1.7843,1.7837,1.7851,1.7859,1.7836,1.7835,1.7815,1.783,1.7882,1.7804,1.7803,1.7819,1.7928,1.7948,1.7958,1.7865,1.7866,1.7868,1.7929,0,1.7915,1.794,1.7914,1.7945,1.7953,1.7916,1.793,1.7922,1.7909,1.7914,1.7899,1.7906,1.7875,1.7874,1.7887,1.7873,1.7903,1.7868,1.7878,1.7879,1.7882,1.7968,1.7988,1.8047,1.7937,1.7938,1.7939,0,1.7989,1.7987,1.8019,1.8001,1.8004,1.8017,1.8015,1.802,1.8011,1.8,1.7999,1.7974,1.799,1.7955,1.7976,1.7953,1.7955,1.7949,1.795,1.7951,1.7913,1.7971,1.8065,1.8074,1.7951,1.795,1.7949,0,1.806,1.8065,1.8085,1.8082,1.8062,1.8072,1.8065,1.8054,1.8055,1.8053,1.8054,1.8055,1.8055,1.8056,1.8033,1.801,1.8057,1.8021,1.8049,1.805,1.8062,1.8061,1.8158,1.8062,1.8062,1.8062,1.8062,0,1.8132,1.8153,1.8117,1.8129,1.8152,1.8122,1.8145,1.8134,1.8124,1.8134,1.8102,1.8112,1.808,1.8087,1.8069,1.809,1.809,1.8082,1.8077,1.8085,1.8087,1.8087,1.8083,1.8064,1.8064,1.8063,1.8063,0,1.8215,1.8191,1.8211,1.819,1.8185,1.8203,1.8185,1.8196,1.818,1.8194,1.8195,1.817,1.8177,1.8153,1.8156,1.8144,1.8175,1.8163,1.8178,1.8175,1.8205,1.8203,1.8306,1.8318,1.8214,1.8215,1.8216,0,1.8263,1.8278,1.8259,1.8263,1.8256,1.8263,1.8265,1.8236,1.8238,1.8229,1.8242,1.8245,1.8247,1.8259,1.8242,1.8245,1.8233,1.8269,1.8233,1.8241,1.8234,1.8234,1.8235,1.8276,1.8278,1.8279,1.8279,0,1.835,1.8337,1.834,1.8339,1.8341,1.8339,1.8335,1.834,1.8309,1.8314,1.832,1.8321,1.8324,1.8328,1.8327,1.8319,1.8295,1.8291,1.8298,1.8306,1.8315,1.8311,1.8199,1.8289,1.8288,1.8287,1.8287,1.8286,1.8417,1.8429,1.8418,1.8422,1.8415,1.8412,1.8421,1.8406,1.8411,1.841,1.8393,1.8403,1.8393,1.8389,1.8384,1.8392,1.8375,1.8385,1.8387,1.839,1.8396,1.8313,1.8391,1.8391,1.8391,1.839,1.839,0,1.8503,1.8494,1.8498,1.8493,1.8496,1.8471,1.8465,1.847,1.8479,1.8472,1.8474,1.8481,1.8486,1.8469,1.8471,1.848,1.8469,1.8482,1.8481,1.848,1.841,1.8404,1.8491,1.8491,1.8491,1.8491,1.8491,1.8491,1.8549,1.8568,1.8554,1.857,1.856,1.8569,1.8568,1.8565,1.8559,1.8569,1.8572,1.856,1.8549,1.855,1.8553,1.8548,1.8551,1.8568,1.8559,1.8495,1.8485,1.8476,1.847,1.8569,1.8569,1.8628,1.8629,1.8629]},{"header":{"parameterUnit":"m.s-1","parameterCategory":1,"la1":30.2991,"la2":30.254,"lo1":-89.0895,"lo2":-89.0444,"dy":0.0017,"dx":0.0017,"nx":28,"ny":28,"refTime":"2024-05-16T21:00:00:Z","depth":0,"parameterNumber":3,"parameterNumberName":"V-component_of_WINDS"},"data":[0,0,0,0,0,0,0,0,0,0,0,0,0,0,0,0,0,0,0,0,0,0,0,0,0,0,0,0,0,0,0,0,0,0,0,0,0,0,0,0,0,0,0,0,0,0,0,0,0,0,0,0,0,0,0,0,0,0,-0.3553,-0.3551,0,-0.3363,-0.3361,-0.3359,-0.3303,-0.3304,-0.3304,-0.3305,-0.3111,-0.3105,-0.3099,0,0,0,0,0,0,0,0,0,0,0,0,0,-0.3867,-0.3862,-0.3553,-0.3551,-0.3548,-0.3364,-0.3361,-0.3359,-0.3302,-0.3304,-0.3305,-0.3306,-0.3113,-0.3106,-0.3098,0,0,0,0,0,0,0,0,0,0,0,0,0,-0.371,-0.386,-0.3554,-0.3498,-0.3491,-0.3364,-0.3361,-0.3358,-0.3302,-0.3304,-0.3305,-0.3306,-0.3115,-0.3106,-0.3097,-0.3012,0,0,-0.307,-0.3066,0,0,0,0,0,0,0,0,-0.3719,-0.3698,-0.3509,-0.3502,-0.3494,-0.3358,-0.34,-0.3242,-0.3302,-0.3374,-0.3305,-0.3307,-0.3192,-0.3177,-0.3138,-0.3003,-0.2995,-0.3069,-0.3063,-0.3059,-0.3057,0,0,0,0,0,0,0,-0.3729,-0.3706,-0.3478,-0.3506,-0.3497,-0.3483,-0.3462,-0.337,-0.3277,-0.3368,-0.3363,-0.3342,-0.3188,-0.3147,-0.3133,-0.2992,-0.3069,-0.3061,-0.3055,-0.3052,-0.2778,-0.2776,0,0,0,0,0,0,-0.375,-0.3715,-0.3484,-0.3472,-0.3612,-0.3476,-0.3453,-0.34,-0.3278,-0.3261,-0.3341,-0.334,-0.3162,-0.3144,-0.3126,-0.3018,-0.3059,-0.3051,-0.3046,-0.2779,-0.2777,-0.2775,0,0,0,0,0,0,-0.3757,-0.373,-0.3492,-0.3593,-0.3561,-0.3469,-0.3411,-0.3396,-0.3354,-0.3257,-0.324,-0.3315,-0.3162,-0.3139,-0.3041,-0.301,-0.3047,-0.3038,-0.2781,-0.2779,-0.2776,-0.2801,0,0,0,0,0,0,-0.3766,-0.3733,-0.3699,-0.3592,-0.3556,-0.341,-0.3409,-0.3391,-0.3339,-0.3336,-0.3229,-0.3213,-0.3161,-0.3055,-0.3032,-0.2998,-0.3031,-0.2784,-0.278,-0.2777,-0.2803,-0.28,-0.2797,0,0,0,0,0,-0.3777,-0.3713,-0.3698,-0.367,-0.3512,-0.3408,-0.3387,-0.333,-0.3336,-0.3302,-0.324,-0.3216,-0.3018,-0.3045,-0.3019,-0.2982,-0.2785,-0.2781,-0.2777,-0.2804,-0.28,-0.2797,0,0,0,0,0,0,-0.3819,-0.3698,-0.3679,-0.3579,-0.3504,-0.3399,-0.3353,-0.3328,-0.3249,-0.325,-0.3181,-0.3158,-0.3065,-0.3014,-0.3047,-0.2893,-0.2901,-0.2891,-0.293,-0.2926,-0.2923,-0.2937,-0.3024,0,0,0,0,0,-0.3816,-0.3742,-0.3641,-0.3562,-0.3525,-0.3446,-0.3399,-0.3361,-0.3281,-0.3249,-0.3179,-0.3103,-0.3023,-0.2971,-0.2893,-0.2795,-0.2771,-0.2757,-0.2754,-0.2753,-0.2745,-0.269,-0.2682,-0.2762,-0.2762,-0.2762,0,0,-0.381,-0.3735,-0.3692,-0.3568,-0.3506,-0.3431,-0.342,-0.334,-0.3284,-0.3236,-0.314,-0.3087,-0.2996,-0.2899,-0.2852,-0.2853,-0.2718,-0.2747,-0.2747,-0.274,-0.2685,-0.2678,-0.2671,-0.2759,-0.276,-0.276,0,0,-0.376,-0.3696,-0.3623,-0.3561,-0.3467,-0.3415,-0.3398,-0.3296,-0.3259,-0.3161,-0.3124,-0.3056,-0.292,-0.2857,-0.2808,-0.2735,-0.2711,-0.2712,-0.2697,-0.2644,-0.2638,-0.2632,-0.2606,-0.2598,-0.2705,-0.2705,-0.2705,0,-0.3764,-0.3649,-0.3589,-0.3511,-0.3458,-0.3413,-0.3338,-0.3281,-0.3166,-0.3131,-0.3134,-0.2962,-0.2898,-0.2785,-0.2768,-0.2729,-0.2708,-0.2723,-0.2644,-0.2637,-0.2631,-0.2605,-0.2596,-0.2705,-0.2705,-0.2705,-0.2705,0,-0.3659,-0.358,-0.3532,-0.3422,-0.3364,-0.3289,-0.3218,-0.3166,-0.3133,-0.3081,-0.2982,-0.2904,-0.2809,-0.278,-0.2747,-0.2662,-0.2666,-0.2657,-0.2663,-0.2625,-0.26,-0.2589,-0.2706,-0.2706,-0.2706,-0.2706,0,0,-0.3628,-0.3487,-0.3471,-0.3421,-0.3314,-0.3252,-0.3175,-0.3082,-0.3038,-0.2961,-0.2895,-0.2781,-0.2773,-0.2717,-0.2677,-0.2631,-0.2579,-0.2628,-0.2625,-0.2621,-0.248,-0.2487,-0.2477,-0.2562,-0.256,-0.2559,-0.2488,0,-0.3565,-0.3425,-0.3369,-0.3256,-0.3182,-0.3138,-0.3071,-0.2998,-0.2948,-0.2878,-0.2822,-0.2743,-0.2738,-0.2704,-0.2656,-0.2595,-0.2549,-0.26,-0.25,-0.2497,-0.2523,-0.2463,-0.247,-0.2407,-0.2478,-0.2476,-0.2475,0,-0.3471,-0.3393,-0.3272,-0.3175,-0.3142,-0.3083,-0.2993,-0.2927,-0.2844,-0.2811,-0.2749,-0.2712,-0.263,-0.2642,-0.2528,-0.2564,-0.252,-0.2484,-0.248,-0.2468,-0.2483,-0.2449,-0.2385,-0.2376,-0.2459,-0.246,-0.2461,0,-0.3461,-0.3326,-0.3236,-0.3194,-0.3079,-0.3038,-0.2988,-0.2907,-0.2855,-0.2777,-0.2742,-0.2656,-0.2609,-0.2543,-0.2484,-0.2499,-0.2376,-0.2383,-0.2346,-0.2347,-0.2321,-0.2323,-0.2249,-0.2294,-0.2294,-0.2295,-0.2295,0,-0.3395,-0.3323,-0.323,-0.3174,-0.3092,-0.303,-0.295,-0.2897,-0.2826,-0.276,-0.2717,-0.2656,-0.2582,-0.2512,-0.2465,-0.2378,-0.2357,-0.2328,-0.2316,-0.2331,-0.2335,-0.23,-0.2303,-0.2292,-0.2293,-0.2293,-0.2294,0,-0.3369,-0.3304,-0.3203,-0.3102,-0.3075,-0.3019,-0.2933,-0.2878,-0.2826,-0.2743,-0.272,-0.2638,-0.2553,-0.2488,-0.2378,-0.2347,-0.2254,-0.2242,-0.2282,-0.2276,-0.2242,-0.2246,-0.2142,-0.2126,-0.2184,-0.2183,-0.2183,0,-0.3331,-0.3274,-0.3168,-0.312,-0.307,-0.2995,-0.2941,-0.2878,-0.2824,-0.2726,-0.2683,-0.2595,-0.2522,-0.2388,-0.2319,-0.2235,-0.222,-0.2189,-0.2207,-0.2224,-0.2219,-0.2223,-0.2217,-0.2187,-0.2187,-0.2186,-0.2186,0,-0.327,-0.3241,-0.3166,-0.3079,-0.3017,-0.2945,-0.2873,-0.2837,-0.2761,-0.2703,-0.2616,-0.2559,-0.2446,-0.236,-0.2268,-0.2217,-0.2189,-0.2182,-0.2168,-0.2182,-0.2208,-0.2193,-0.2275,-0.2184,-0.2184,-0.2184,-0.2184,-0.2185,-0.3236,-0.3184,-0.3101,-0.3018,-0.2958,-0.2892,-0.2835,-0.2776,-0.2702,-0.2606,-0.2573,-0.2483,-0.2402,-0.2277,-0.2225,-0.2154,-0.2153,-0.2134,-0.2129,-0.2125,-0.2127,-0.222,-0.2138,-0.2138,-0.2138,-0.2137,-0.2137,0,-0.3173,-0.3117,-0.3042,-0.2943,-0.2878,-0.2858,-0.2777,-0.2725,-0.2646,-0.2573,-0.2502,-0.2402,-0.2318,-0.2243,-0.2156,-0.2113,-0.2098,-0.2093,-0.2095,-0.2083,-0.2133,-0.2152,-0.2106,-0.2106,-0.2106,-0.2106,-0.2106,-0.2106,-0.3132,-0.3043,-0.3004,-0.2884,-0.2829,-0.274,-0.2696,-0.2635,-0.2576,-0.2467,-0.2397,-0.2349,-0.2275,-0.2182,-0.2104,-0.2085,-0.2054,-0.2052,-0.2029,-0.2076,-0.208,-0.2084,-0.2102,-0.2046,-0.2046,-0.1985,-0.1984,-0.1984]}]]